Regional Weather Roundup
Issued by NWS Burlington, VT

Current Version | Previous Version | Text Only | Print | Product List | Glossary On
Versions: 1 2 3 4 5 6 7 8 9 10 11 12 13 14 15 16 17 18 19 20 21 22 23 24 25 26 27 28 29 30 31 32 33 34 35 36 37 38 39 40 41 42 43 44 45 46 47 48 49 50
000 ASUS41 KBTV 232030 RWRBTV VERMONT REGIONAL WEATHER ROUNDUP NATIONAL WEATHER SERVICE BURLINGTON VT 400 PM EDT FRI JUN 23 2017 NOTE: "FAIR" INDICATES FEW OR NO CLOUDS BELOW 12,000 FEET WITH NO SIGNIFICANT WEATHER AND/OR OBSTRUCTIONS TO VISIBILITY. * THESE REPORTS ARE NOT UNDER NWS QUALITY CONTROL AND/OR DO NOT REPORT WEATHER SUCH AS PRECIPITATION AND FOG. VTZ001>019-232100- _____VERMONT_____ CITY SKY/WX TMP DP RH WIND PRES REMARKS BURLINGTON PTSUNNY 78 72 81 S10 29.56F MONTPELIER RAIN 74 71 91 CALM 29.66S FOG MORRISVILLE LGT RAIN 73 70 90 S6 29.60F FOG ST. JOHNSBURY* N/A 81 69 67 MISG 29.57F LYNDONVILLE* RAIN 76 68 75 S6 29.63F MIDDLEBURY* CLOUDY 75 71 88 SE5 29.57F RUTLAND* CLOUDY 83 68 60 S3 29.59F SPRINGFIELD PTSUNNY 86 67 52 S14G21 29.59F HIGHGATE* CLOUDY 74 70 87 CALM 29.55F NEWPORT* LGT RAIN 74 71 91 S5 29.60F BENNINGTON CLOUDY 82 64 54 S13G21 29.62F SUTTON* N/A 75 N/A N/A MISG N/A ISLAND POND* N/A 77 N/A N/A W5 N/A GALLUP MILLS* N/A 75 N/A N/A MISG N/A UNION VILLAGE* N/A 84 N/A N/A MISG N/A MT. MANSFIELD* N/A 64 N/A N/A S15 N/A _____LAKE CHAMPLAIN_____ CITY SKY/WX TMP DP RH WIND PRES REMARKS BURTON ISLAND* N/A 73 68 83 N1 N/A COLCHESTER RF* N/A 72 68 88 S14 N/A DIAMOND ISL* N/A 77 70 78 S12 N/A $$ NYZ007-026>031-035-052-083-087-232100- _____NORTHERN NEW YORK_____ CITY SKY/WX TMP DP RH WIND PRES REMARKS PLATTSBURGH CLOUDY 74 69 85 SE8 29.54F SARANAC LAKE CLOUDY 75 68 78 SW12 29.59F MASSENA PTSUNNY 76 69 79 SW8 29.52F OGDENSBURG* LGT RAIN 74 70 87 SW6 29.51F POTSDAM* LGT RAIN 73 73 100 S5 29.52F STARK FALLS* N/A 73 N/A N/A SW8 N/A WATERTOWN LGT RAIN 71 71 100 SW7 29.53F FOG FT DRUM RAIN 72 70 94 S9 29.54F FOG ALBANY PTSUNNY 84 66 54 S16G30 29.58F GLENS FALLS CLOUDY 76 70 82 CALM 29.57F $$ NHZ002-005-011-232100- _____NEW HAMPSHIRE_____ CITY SKY/WX TMP DP RH WIND PRES REMARKS LEBANON MOSUNNY 86 67 52 S17G23 29.58F KEENE MOSUNNY 87 67 51 S10G21 29.61F HX 90 MT WASHINGTON FOG 55 55 100 SW38G46 N/A VSB 1/16 PLYMOUTH FAIR 81 68 63 E8 29.60F WHITEFIELD SUNNY 84 66 54 VRB6 29.62F $$ _____REGIONAL QUEBEC LOCATIONS_____ CITY SKY/WX TMP DP RH WIND PRES REMARKS MONTREAL PTSUNNY 77 68 73 SW10 29.52F QUEBEC CITY LGT RAIN 63 61 94 NE6 29.58S FOG SHERBROOKE CLOUDY 73 70 88 S3 29.59F _____REGIONAL ONTARIO LOCATIONS_____ CITY SKY/WX TMP DP RH WIND PRES REMARKS OTTAWA PTSUNNY 75 68 78 SW12 29.50F ______KEY______ VSB - VISIBILITY IN MILES WCI - WIND CHILL INDEX HX - HEAT INDEX $$ NNNN

USA.gov is the U.S. government's official web portal to all federal, state and local government web resources and services.